Regional Weather Roundup
Issued by NWS

Home | Current Version | Previous Version | Graphics & Text | Print | Product List | Glossary On
Versions: 1 2 3 4 5 6 7 8 9 10 11 12 13 14 15 16 17 18 19 20 21 22 23 24 25 26 27 28 29 30 31 32 33 34 35 36 37 38 39 40 41 42 43 44 45 46 47 48 49 50
000
ASUS45 KBOU 302210
RWRCO

WEATHER ROUNDUP FOR COLORADO
NATIONAL WEATHER SERVICE DENVER/BOULDER CO
400 PM MDT TUE JUN 30 2015

NOTE: "FAIR" INDICATES FEW OR NO CLOUDS BELOW 12000 FEET WITH NO
SIGNIFICANT WEATHER AND/OR OBSTRUCTIONS TO VISIBILITY.

COZ001>005-013-030-031-302300-
...NORTHWEST COLORADO...

CITY           SKY/WX    TMP DP  RH WIND       PRES   REMARKS
CRAIG          LGT RAIN  86  39  19 W24G33    30.16R
HAYDEN         CLOUDY    88  39  18 W12       30.17F THUNDER
MEEKER         MOSUNNY   92  40  16 VRB6      30.15F
MOUNT WERNER   NOT AVBL
STEAMBOAT SPGS MOSUNNY   88  44  21 W6        30.19F
WALDEN         PTSUNNY   73  52  46 E12       30.30F
$$

COZ006>008-011-302300-
...WEST CENTRAL VALLEYS...

CITY           SKY/WX    TMP DP  RH WIND       PRES   REMARKS
GRAND JUNCTION SUNNY     99  39  12 W7        30.00F
MONTROSE       SUNNY     96  42  15 W12       30.10F
EAGLE          MOSUNNY   88  41  19 E6        30.18F
RIFLE          MOSUNNY   97  41  14 NW6       30.05F
DELTA          SUNNY    103  37  10 SW10G18   30.03F
NUCLA          SUNNY     95  37  13 NW6       30.14F
$$

COZ017>023-064>068-302300-
...SOUTHWEST COLORADO...

CITY           SKY/WX    TMP DP  RH WIND       PRES   REMARKS
DURANGO        SUNNY     89  46  22 MISG      30.18F
CORTEZ         SUNNY     93  44  18 SW7       30.12F
PAGOSA SPRINGS SUNNY     87  38  17 S8        30.28F
TELLURIDE      SUNNY     81  31  16 NW5       30.42F
WOLF CREEK PAS NOT AVBL
$$

COZ009-010-012-014-032>034-037-058>063-302300-
...CENTRAL COLORADO...

CITY           SKY/WX    TMP DP  RH WIND       PRES   REMARKS
ASPEN          MOSUNNY   87  42  20 N12       30.27F
BUENA VISTA    MOSUNNY   88  33  14 SE5       30.26F
COPPER MTN     PTSUNNY   70  30  23 W22G31    30.68F
BERTHOUD PASS  PTSUNNY   57  46  67 NW5G21    30.74S
COTTONWOOD PAS NOT AVBL
GUNNISON       MOSUNNY   84  39  20 S6        30.28F
KREMMLING      MOSUNNY   91  25   9 W8G16     30.24F
LEADVILLE      MOSUNNY   78  29  16 NW13G24   30.46F
MONARCH PASS   MOSUNNY   61  41  48 SW7       30.78S
SALIDA         MOSUNNY   86  44  23 SW14      30.30S
SUNLIGHT       MOSUNNY   75  41  29 W5        30.60F
WILKERSON PASS PTSUNNY   68  32  26 SE5       30.62F
$$

COZ069>075-302300-
...SAN LUIS VALLEY/SANGRE DE CRISTO MOUNTAINS...

CITY           SKY/WX    TMP DP  RH WIND       PRES   REMARKS
ALAMOSA        SUNNY     85  41  21 S7        30.26F
LA VETA PASS   MOSUNNY   75  43  31 MISG      30.52S
SAGUACHE       MOSUNNY   81  45  28 SE6       30.29F
$$

COZ035-036-038>040-302300-
...NORTHERN COLORADO FRONT RANGE...

CITY           SKY/WX    TMP DP  RH WIND       PRES   REMARKS
DENVER INTL AP MOSUNNY   92  43  18 E9        30.06F
DMNS CITY PARK   N/A     96  38  13 CALM      30.06S
AURORA         MOSUNNY   90  48  23 S3        30.10F
FRONT RANGE AP MOSUNNY   91  48  22 VRB6      30.09F
ERIE MUNI ARPT MOSUNNY   95  37  13 CALM      30.05S
BOULDER MUN AP MOSUNNY   90  41  18 CALM      30.07R
CENTENNIAL     MOSUNNY   90  45  21 SE5       30.11F
BROOMFIELD     PTSUNNY   93  41  16 CALM      30.10F
FORT COLLINS   PTSUNNY   86  50  28 W6        30.05R
LONGMONT       PTSUNNY   93  41  16 NE5       30.07R
$$

COZ041-046-047-076>085-087-088-302300-
...PIKES PEAK/PALMER DIVIDE AND SOUTHERN FOOTHILLS...

CITY           SKY/WX    TMP DP  RH WIND       PRES   REMARKS
COLO. SPRINGS  MOSUNNY   87  50  27 S8        30.16F
A. F. ACADEMY  SUNNY     86  46  24 S3        30.17S
ELLICOTT       SUNNY      1  32 100 E7        30.15F WCI -12
FALCON         SUNNY     86  46  24 S8        30.23F
FORT CARSON    SUNNY     87  52  30 VRB3      30.13F
LIMON          SUNNY     86  52  30 VRB6      30.09F
MONUMENT HILL  SUNNY     82  41  23 NE3       30.23F
TRINIDAD       SUNNY     91  48  22 CALM      30.12F
$$

COZ042>045-048>051-090-091-302300-
...NORTHEAST COLORADO...

CITY           SKY/WX    TMP DP  RH WIND       PRES   REMARKS
GREELEY ARPT   MOSUNNY   90  48  24 NW6       30.04R
AKRON          SUNNY     93  47  20 VRB6      30.01F
BURLINGTON     LGT RAIN  95  47  19 SW15G22   30.00F
WRAY           SUNNY    100  48  17 SW13      29.94F
STERLING       SUNNY     95  48  20 SW8         N/A
HOLYOKE        SUNNY     99  50  19 CALM      29.93F
FORT MORGAN    SUNNY     93  45  18 SE3       30.01F
$$

COZ086-089-092>099-302300-
...SOUTHEAST COLORADO...

CITY           SKY/WX    TMP DP  RH WIND       PRES   REMARKS
PUEBLO         SUNNY     99  42  14 E8        30.02F
LA JUNTA       SUNNY     96  47  18 VRB3      30.01F
LAMAR          SUNNY     96  47  18 VRB3      29.96F
SPRINGFIELD      N/A     93  44  18 SW12G22   30.04F
$$



USA.gov is the U.S. government's official web portal to all federal, state and local government web resources and services.